Location: Unspecified
(0.0000°N, 0.0000°E)
Time: 14:07:16
(UTC+00:00)

NTS 1 - Pass Details

Date: 12 June 2023
Orbit: 13478 x 13741 km, 124.8° (Epoch: 26 September)

Event Time Altitude Azimuth Distance (km) Brightness Sun altitude
Rises 16:27:21 0° 149° (SSE) 18,957 ? 21.2°
Reaches altitude 10° 16:39:02 10° 154° (SSE) 17,855 ? 18.5°
Maximum altitude 17:34:52 45° 216° (SW) 14,838 ? 5.8°
Drops below altitude 10° 18:32:22 10° 283° (WNW) 17,723 ? -7.5°
Sets 18:45:02 0° 290° (WNW) 18,806 ? -10.4°
